Temp
40 40 40 41 40 39 39 40 38 38 38 40 41 41 41 42 41 40 40 41 42 43 45 47 48 49 49 48 47 46 46 47 48 48 48 48 47 46 46 46 46 47 47 47 49 49 50 50 50 51 50 50 49 49 49 50 50 50 49 50 50 50
41 41 41 42 42 41 41 39 37 37 39 39 39 40 38 38 39 40 40 40 41 41 42 43 46 48 49 49 48 47 47 47 48 48 47 47 47 46 46 46 46 46 47 46 47 48 49 49 50 50 49 49 49 49 48 48 48 48 47 46 46 46
40 40 40 41 40 37 37 37 38 39 37 38 39 39 39 39 40 40 41 40 40 40 40 41 43 45 47 48 48 48 48 48 47 48 49 48 46 47 46 46 46 47 47 47 46 47 48 48 48 49 48 48 48 48 48 47 48 47 46 45 44 43
40 39 38 36 34 38 38 39 37 37 37 39 39 39 39 39 39 39 40 40 41 41 41 41 42 43 45 46 48 48 48 48 47 48 47 47 47 46 46 46 46 46 46 46 46 46 47 48 48 48 48 47 47 47 47 46 47 47 45 44 43 43
40 39 37 37 37 38 37 37 37 39 39 38 37 38 39 39 40 40 40 40 40 40 41 41 41 41 42 43 45 46 47 48 47 47 46 46 46 45 46 45 46 46 46 46 45 45 46 46 47 47 47 47 47 47 46 46 46 46 44 43 42 42
33 33 35 37 36 36 37 38 37 36 36 37 37 37 39 39 39 39 39 39 39 40 40 40 40 40 41 42 43 44 46 47 47 46 46 46 45 44 44 45 45 45 45 45 45 45 44 45 45 45 46 46 47 46 46 45 46 46 44 43 42 41
35 39 38 37 37 35 35 36 36 35 37 35 36 38 38 38 37 37 38 38 38 38 38 39 39 40 40 41 42 42 43 44 45 45 45 45 44 44 43 43 44 44 44 44 44 44 44 43 44 44 44 45 46 46 45 44 45 44 43 43 42 41
37 34 35 36 36 37 37 36 36 35 35 36 35 35 34 35 34 36 36 36 36 36 36 37 38 39 40 40 41 41 42 43 44 44 43 44 44 43 42 42 41 42 43 43 44 44 44 44 43 43 43 43 43 43 44 43 43 43 43 43 42 41
36 38 37 36 36 35 36 36 37 35 34 35 33 32 33 32 32 33 34 34 34 35 35 35 36 38 38 38 39 39 39 40 42 42 42 41 42 41 39 39 40 40 41 42 42 42 43 43 43 42 42 42 42 42 42 42 42 42 42 42 42 41
38 36 37 35 35 35 34 34 35 35 35 36 32 30 31 32 31 33 33 33 33 33 34 34 34 35 36 37 37 38 38 38 39 40 41 40 40 39 39 39 39 39 38 39 39 40 39 40 41 41 41 41 41 41 41 41 41 41 40 40 40 40
38 37 36 35 34 33 34 33 33 32 32 32 31 30 31 30 31 31 32 32 32 33 33 33 33 34 34 35 36 36 37 37 38 39 39 38 39 39 39 39 39 38 38 38 38 38 38 38 39 40 40 40 41 40 40 41 40 40 39 39 39 39
37 37 36 34 34 34 33 33 33 32 33 33 31 31 30 30 30 31 31 31 31 31 32 33 33 33 33 34 35 35 36 36 37 38 38 38 38 38 38 38 38 38 38 38 37 38 38 38 39 39 39 40 39 39 40 40 39 39 39 38 37 37
36 35 34 35 34 34 35 34 34 32 31 31 31 31 30 29 31 31 31 32 31 31 31 31 32 33 33 34 34 34 35 36 37 37 37 37 37 37 37 37 37 37 37 37 37 37 37 38 39 39 40 41 41 39 38 38 38 39 38 38 37 36
37 35 36 36 36 34 34 33 32 31 32 32 31 31 29 30 31 32 31 31 30 30 31 31 32 32 33 33 34 34 34 35 36 37 37 36 36 36 36 36 37 37 37 37 37 37 37 37 38 40 40 41 41 39 38 37 37 37 37 37 37 36
39 38 37 36 36 35 35 34 32 32 33 32 32 30 30 31 31 31 30 30 30 30 30 31 31 32 32 33 34 34 34 35 36 37 36 36 36 36 35 36 36 36 36 36 36 36 36 37 38 39 40 40 41 40 38 37 37 36 36 36 36 36
38 38 38 38 38 37 35 33 34 34 32 32 30 31 31 32 30 30 30 30 30 30 30 30 31 32 33 33 33 33 34 35 36 36 37 36 35 35 35 35 35 36 36 36 36 36 36 36 37 39 40 40 40 40 39 36 36 36 35 35 35 35
38 37 35 34 35 32 30 30 31 30 29 30 31 30 31 30 31 30 30 30 30 29 29 30 31 31 32 32 33 33 35 36 36 36 36 36 35 35 35 35 35 35 36 36 36 35 35 35 37 39 39 40 40 40 39 35 35 35 35 35 35 35
38 37 37 37 33 31 31 33 31 31 31 30 32 30 30 31 31 31 30 30 29 30 30 30 31 31 31 32 33 34 35 36 36 35 35 34 34 35 35 35 35 35 35 35 35 35 34 35 37 38 39 39 40 40 36 35 34 34 34 34 34 34
39 39 37 33 34 33 32 31 31 31 30 30 30 30 30 30 30 31 31 31 31 30 31 32 33 33 33 33 34 35 35 35 35 35 34 34 34 34 34 34 34 35 35 35 34 34 34 34 36 38 38 39 39 38 35 33 33 33 33 33 33 33
38 34 35 34 33 34 33 31 31 31 30 30 30 30 30 30 31 31 31 32 33 32 31 32 32 33 34 34 34 34 35 35 35 35 34 34 33 33 34 34 34 34 35 34 34 35 34 33 35 37 38 38 39 37 34 33 33 33 33 32 32 32
36 35 33 33 34 33 31 31 31 31 30 30 30 30 30 30 31 31 31 32 32 32 32 33 33 32 32 32 32 33 34 34 34 34 33 33 33 33 33 34 34 33 34 34 34 34 34 34 34 37 38 38 38 35 34 33 33 32 32 32 31 31
32 31 32 34 36 32 31 31 31 31 31 30 29 29 30 31 31 32 32 32 32 32 32 32 33 34 35 34 35 35 35 35 34 33 33 33 33 33 33 33 34 33 33 33 33 34 34 33 33 35 38 37 37 36 34 33 32 32 31 31 31 30
37 37 37 38 34 31 31 31 31 31 30 30 29 30 31 32 31 31 32 31 32 33 33 32 33 33 34 35 35 35 34 34 33 33 33 32 32 32 32 32 33 33 33 33 33 33 34 34 33 34 37 37 37 37 35 33 33 33 32 31 30 30
35 33 32 31 32 31 31 31 32 32 30 29 30 32 32 31 31 31 31 31 32 33 33 34 33 33 34 34 34 33 33 33 33 33 33 33 32 32 32 32 32 33 33 32 32 33 33 33 33 33 35 36 36 36 36 33 33 33 32 31 30 30
33 34 34 32 30 31 31 32 32 31 30 30 32 32 31 31 31 31 31 31 31 32 33 34 34 34 34 34 34 34 33 33 32 32 33 32 32 31 31 31 32 32 32 31 31 32 32 33 33 33 34 35 36 36 36 36 34 35 33 31 30 30
35 35 32 30 30 30 31 31 32 31 30 31 33 30 30 30 31 31 30 30 31 31 32 33 34 34 34 33 33 33 33 32 32 32 32 32 31 31 31 31 31 31 31 30 30 31 32 32 32 33 33 34 36 37 37 36 35 35 32 32 31 31
34 33 31 30 29 30 30 31 32 31 30 33 31 30 30 30 30 30 30 30 30 31 32 33 33 34 34 33 33 33 32 32 32 31 31 31 31 31 30 30 31 30 30 30 30 30 31 32 32 32 33 33 34 36 37 36 35 35 35 32 32 32
32 31 32 29 29 30 30 31 32 32 33 33 31 30 30 30 29 29 30 29 30 30 31 32 33 33 33 33 34 34 33 32 32 31 31 31 30 30 30 30 30 30 30 30 30 30 30 31 31 31 32 33 33 34 36 35 35 34 34 33 32 31
30 31 31 32 29 29 30 30 31 34 34 31 30 30 30 29 29 29 29 29 29 29 30 31 32 33 33 33 33 33 34 33 32 32 31 30 30 30 30 30 30 30 30 30 30 30 30 30 30 31 31 33 33 34 34 34 34 33 33 32 31 31
32 33 32 33 32 30 30 31 31 32 32 30 29 29 29 29 29 28 28 28 29 29 29 30 31 32 32 33 33 32 32 33 33 32 32 31 31 30 30 30 30 30 30 30 30 30 30 30 30 31 31 32 33 34 34 34 34 33 32 31 30 30
31 32 31 33 32 30 30 30 31 32 31 30 29 29 29 29 29 29 28 28 28 28 30 30 31 32 32 32 32 33 33 33 32 32 33 34 34 33 31 30 31 31 32 32 31 30 29 29 29 31 33 33 34 34 34 34 34 33 32 32 32 29
31 31 31 33 31 30 30 31 31 31 30 30 30 30 29 29 28 28 28 27 28 28 29 29 30 31 32 32 32 32 32 33 34 34 33 33 33 33 35 34 32 33 33 32 33 33 31 30 32 34 34 34 35 35 35 35 35 35 33 33 32 30
30 30 31 33 31 31 31 31 30 30 30 31 30 30 30 29 28 28 28 27 27 28 29 29 29 31 32 32 32 32 31 31 32 34 35 35 34 33 34 35 35 35 35 34 33 34 35 35 35 35 35 35 35 35 35 35 35 35 34 34 30 28
29 30 32 34 32 31 30 30 30 30 30 30 30 30 30 30 29 28 28 28 28 28 29 29 30 30 31 31 32 31 31 30 30 31 33 34 34 34 34 35 35 35 35 35 35 34 33 34 34 35 34 34 35 35 35 35 35 34 34 33 32 28
33 33 33 32 31 31 30 30 30 30 29 29 30 30 30 30 30 30 29 28 28 28 29 29 29 30 31 31 31 31 31 30 30 29 29 32 33 34 34 34 35 35 35 35 35 35 34 34 34 34 34 34 34 35 35 35 35 34 34 33 30 28
32 32 31 31 30 30 29 29 30 29 29 29 30 30 30 30 30 30 30 29 28 28 28 28 29 30 30 31 31 31 31 31 31 30 30 29 29 30 32 33 34 34 35 35 35 35 35 35 34 34 34 34 34 34 34 34 34 34 35 32 29 29
31 30 30 30 30 29 28 29 30 30 29 29 29 29 29 30 30 30 31 30 29 28 28 28 29 29 30 31 31 31 30 30 31 31 30 30 29 28 28 29 31 33 33 33 34 35 35 35 34 34 34 34 34 34 35 35 32 31 31 31 31 30
30 30 30 30 29 28 28 29 30 28 28 28 29 29 29 30 30 30 29 29 30 29 28 28 29 30 31 31 31 31 31 31 30 30 30 30 30 30 29 30 31 32 32 33 33 34 34 35 35 35 34 34 34 34 35 31 30 30 30 30 30 30
MSLP
1005.47 1005.52 1005.40 1005.55 1006.28 1006.52 1006.55 1006.59 1007.16 1007.52 1007.84 1007.96 1007.96 1007.91 1007.99 1007.99 1008.55 1009.11 1009.52 1009.59 1009.59 1009.59 1009.52 1009.47 1009.47 1009.40 1009.43 1009.59 1009.84 1010.11 1010.28 1010.35 1010.47 1010.72 1010.88 1011.20 1011.64 1011.96 1012.23 1012.35 1012.43 1012.72 1013.08 1013.23 1013.40 1013.59 1013.91 1014.23 1014.35 1014.40 1014.43 1014.43 1014.55 1014.79 1014.84 1014.88 1015.08 1015.47 1016.11 1016.67 1017.28 1017.76
1005.08 1005.03 1004.84 1004.72 1004.88 1005.28 1005.84 1006.32 1006.91 1007.03 1007.23 1007.67 1007.88 1008.03 1008.28 1008.43 1008.47 1008.55 1008.72 1008.96 1009.20 1009.28 1009.35 1009.32 1009.23 1009.23 1009.32 1009.35 1009.59 1009.91 1010.16 1010.23 1010.35 1010.47 1010.76 1010.91 1011.28 1011.55 1011.88 1012.20 1012.40 1012.64 1012.88 1013.16 1013.28 1013.43 1013.67 1013.96 1014.08 1014.28 1014.40 1014.64 1014.67 1014.64 1014.84 1014.96 1015.08 1015.23 1015.52 1016.23 1016.79 1017.43
1004.76 1005.08 1005.43 1005.52 1005.72 1006.08 1006.16 1006.28 1006.23 1006.32 1006.99 1007.28 1007.55 1007.76 1008.03 1008.23 1008.28 1008.47 1008.43 1008.64 1008.91 1009.08 1009.20 1009.23 1009.20 1009.20 1009.32 1009.43 1009.55 1009.76 1009.88 1009.99 1010.20 1010.32 1010.43 1010.79 1011.03 1011.20 1011.64 1011.91 1012.11 1012.40 1012.64 1012.96 1013.23 1013.40 1013.40 1013.55 1013.88 1013.99 1014.20 1014.40 1014.59 1014.76 1014.72 1014.99 1015.11 1015.16 1015.59 1016.11 1016.76 1017.23
1004.67 1005.08 1005.67 1005.96 1005.96 1005.64 1005.52 1005.55 1006.08 1006.11 1006.28 1006.55 1007.03 1007.47 1007.76 1007.96 1008.32 1008.35 1008.32 1008.47 1008.47 1008.72 1008.96 1009.16 1009.28 1009.32 1009.47 1009.59 1009.64 1009.72 1009.79 1009.96 1010.16 1010.35 1010.67 1010.88 1011.08 1011.47 1011.52 1011.64 1011.84 1012.11 1012.43 1012.72 1012.96 1013.16 1013.40 1013.35 1013.43 1013.67 1013.84 1013.99 1014.32 1014.59 1014.67 1014.84 1014.99 1015.20 1015.52 1015.99 1016.47 1016.99
1004.32 1004.55 1004.84 1004.99 1005.23 1005.11 1005.35 1005.55 1005.72 1005.59 1005.72 1006.08 1006.47 1006.72 1006.99 1007.43 1007.72 1008.03 1008.23 1008.40 1008.52 1008.52 1008.59 1008.84 1009.20 1009.40 1009.52 1009.59 1009.64 1009.76 1009.88 1010.08 1010.28 1010.52 1010.72 1010.91 1011.16 1011.40 1011.52 1011.67 1011.79 1011.96 1012.11 1012.43 1012.64 1012.96 1013.23 1013.32 1013.23 1013.43 1013.64 1013.67 1013.79 1014.08 1014.23 1014.20 1014.47 1014.79 1015.35 1015.79 1016.11 1016.67
1005.40 1005.23 1004.47 1004.43 1004.59 1004.52 1004.47 1004.76 1005.23 1005.59 1005.72 1005.76 1005.96 1006.16 1006.16 1006.76 1007.20 1007.64 1008.03 1008.28 1008.43 1008.52 1008.67 1008.84 1008.88 1009.08 1009.23 1009.35 1009.40 1009.52 1009.67 1009.91 1010.20 1010.43 1010.72 1010.84 1010.99 1011.16 1011.35 1011.55 1011.67 1011.79 1011.88 1011.91 1012.20 1012.59 1012.96 1013.20 1013.28 1013.23 1013.28 1013.35 1013.59 1013.84 1014.08 1013.91 1013.96 1014.35 1014.88 1015.32 1015.84 1016.40
1004.11 1003.67 1003.67 1003.79 1003.88 1004.43 1004.76 1004.79 1004.88 1005.08 1005.03 1005.40 1005.47 1005.43 1005.79 1006.16 1006.59 1007.03 1007.40 1007.72 1008.03 1008.40 1008.59 1008.72 1008.88 1008.91 1008.96 1008.96 1008.99 1009.11 1009.28 1009.55 1009.79 1010.11 1010.32 1010.55 1010.76 1010.96 1011.20 1011.35 1011.43 1011.55 1011.67 1011.67 1011.64 1011.96 1012.40 1012.79 1013.23 1013.47 1013.40 1013.28 1013.40 1013.52 1013.72 1013.76 1013.72 1014.08 1014.52 1014.88 1015.32 1015.79
1003.40 1003.91 1004.03 1003.99 1003.99 1003.91 1003.96 1004.32 1004.67 1004.96 1005.08 1004.99 1005.28 1005.28 1005.47 1005.72 1006.08 1006.32 1006.67 1007.08 1007.40 1007.76 1008.03 1008.28 1008.52 1008.59 1008.64 1008.72 1008.84 1008.91 1009.11 1009.28 1009.47 1009.72 1010.03 1010.23 1010.47 1010.72 1010.96 1011.16 1011.32 1011.35 1011.35 1011.40 1011.40 1011.40 1011.47 1011.79 1012.32 1012.88 1013.23 1013.28 1013.32 1013.43 1013.47 1013.43 1013.47 1013.84 1014.32 1014.76 1015.08 1015.47
1003.28 1003.11 1003.55 1003.91 1003.79 1004.03 1004.16 1004.20 1004.28 1004.55 1004.79 1004.88 1005.16 1005.35 1005.32 1005.40 1005.64 1005.88 1006.16 1006.47 1006.76 1007.08 1007.40 1007.67 1007.88 1008.08 1008.28 1008.40 1008.52 1008.72 1008.96 1009.11 1009.23 1009.52 1009.76 1009.99 1010.20 1010.52 1010.79 1010.99 1011.11 1011.16 1011.20 1011.20 1011.35 1011.47 1011.47 1011.55 1011.72 1012.08 1012.59 1013.20 1013.47 1013.55 1013.64 1013.40 1013.47 1013.96 1014.40 1014.72 1014.91 1015.16
1003.28 1003.59 1003.52 1003.59 1003.59 1003.91 1004.43 1004.59 1004.59 1004.47 1004.52 1004.35 1004.72 1005.23 1005.23 1005.32 1005.40 1005.52 1005.76 1006.03 1006.32 1006.55 1006.72 1007.03 1007.35 1007.59 1007.79 1007.99 1008.16 1008.35 1008.47 1008.72 1008.91 1009.11 1009.35 1009.72 1009.91 1010.11 1010.35 1010.64 1010.79 1010.91 1011.16 1011.20 1011.35 1011.52 1011.67 1011.84 1011.88 1011.84 1012.08 1012.59 1013.08 1013.23 1013.35 1013.35 1013.32 1013.72 1014.35 1014.79 1015.20 1015.28
1003.08 1003.08 1003.23 1003.23 1003.47 1003.40 1003.43 1004.08 1004.35 1004.79 1004.88 1004.91 1004.88 1005.08 1004.99 1005.28 1005.32 1005.40 1005.59 1005.84 1005.96 1006.11 1006.40 1006.59 1006.84 1007.08 1007.32 1007.55 1007.76 1007.96 1008.16 1008.32 1008.52 1008.76 1009.08 1009.35 1009.59 1009.79 1009.96 1010.20 1010.52 1010.76 1010.99 1011.11 1011.23 1011.40 1011.55 1011.76 1011.91 1011.99 1011.91 1012.03 1012.35 1012.84 1013.35 1013.35 1013.20 1013.40 1014.03 1014.72 1015.11 1015.32
1002.91 1002.91 1003.03 1003.16 1003.08 1002.79 1002.96 1003.35 1003.84 1004.20 1004.20 1004.28 1004.64 1004.84 1004.99 1005.32 1005.20 1005.28 1005.52 1005.67 1005.88 1006.16 1006.32 1006.40 1006.52 1006.67 1006.91 1007.20 1007.35 1007.52 1007.76 1007.96 1008.20 1008.43 1008.72 1008.99 1009.23 1009.52 1009.79 1010.03 1010.23 1010.47 1010.67 1010.91 1011.11 1011.20 1011.35 1011.43 1011.47 1011.59 1011.91 1012.11 1012.28 1012.52 1012.64 1013.03 1013.23 1013.11 1013.52 1014.23 1014.88 1015.16
1002.84 1003.20 1003.28 1002.88 1002.64 1002.43 1002.64 1002.96 1003.35 1003.96 1004.35 1004.52 1004.72 1004.76 1004.91 1005.16 1005.03 1005.23 1005.40 1005.52 1005.84 1006.03 1006.20 1006.35 1006.43 1006.59 1006.67 1006.84 1007.08 1007.28 1007.47 1007.67 1007.91 1008.20 1008.43 1008.72 1009.03 1009.32 1009.59 1009.84 1010.08 1010.28 1010.47 1010.67 1010.84 1010.99 1011.11 1011.16 1011.16 1011.28 1011.52 1011.96 1012.23 1012.40 1012.72 1012.99 1013.35 1013.59 1013.47 1013.88 1014.28 1014.55
1002.43 1002.67 1002.35 1002.11 1002.11 1002.43 1002.84 1002.99 1003.43 1003.96 1003.79 1004.40 1004.67 1004.76 1005.08 1005.11 1005.11 1005.20 1005.40 1005.59 1005.79 1005.91 1006.03 1006.16 1006.32 1006.43 1006.52 1006.72 1006.84 1006.99 1007.23 1007.47 1007.67 1007.91 1008.16 1008.47 1008.79 1009.03 1009.40 1009.64 1009.72 1009.91 1010.28 1010.52 1010.64 1010.72 1010.72 1010.76 1010.91 1011.23 1011.47 1011.76 1012.16 1012.52 1012.64 1012.84 1013.28 1013.79 1013.84 1013.64 1013.99 1014.28
1001.84 1001.91 1001.88 1002.20 1002.11 1002.23 1002.47 1002.99 1003.28 1003.20 1003.59 1004.20 1004.40 1004.96 1004.99 1004.99 1005.08 1005.23 1005.40 1005.59 1005.72 1005.79 1005.96 1006.11 1006.23 1006.32 1006.43 1006.52 1006.64 1006.79 1007.03 1007.23 1007.43 1007.67 1007.91 1008.16 1008.40 1008.76 1009.03 1009.23 1009.55 1009.76 1009.99 1010.23 1010.40 1010.52 1010.52 1010.55 1010.67 1011.03 1011.35 1011.55 1011.79 1012.16 1012.59 1012.84 1012.91 1013.35 1013.96 1013.84 1013.79 1014.11
1002.08 1002.28 1001.84 1001.28 1001.32 1001.88 1002.35 1003.28 1002.79 1002.91 1003.72 1003.99 1004.59 1004.64 1004.72 1004.84 1005.03 1005.20 1005.32 1005.52 1005.64 1005.76 1005.88 1005.99 1006.16 1006.23 1006.32 1006.47 1006.59 1006.72 1006.88 1007.03 1007.11 1007.35 1007.59 1007.88 1008.23 1008.43 1008.72 1008.96 1009.20 1009.47 1009.76 1009.96 1010.16 1010.32 1010.43 1010.52 1010.64 1010.79 1010.99 1011.23 1011.59 1012.03 1012.52 1012.91 1012.96 1013.11 1013.55 1013.99 1013.96 1014.11
1001.52 1001.76 1002.08 1001.84 1001.72 1002.40 1003.03 1003.28 1003.55 1003.59 1004.08 1004.23 1004.23 1004.47 1004.59 1004.84 1004.88 1005.03 1005.23 1005.43 1005.55 1005.72 1005.79 1005.96 1006.08 1006.16 1006.28 1006.43 1006.55 1006.64 1006.72 1006.84 1006.99 1007.23 1007.43 1007.72 1007.91 1008.20 1008.47 1008.79 1009.08 1009.28 1009.52 1009.72 1009.84 1010.03 1010.23 1010.32 1010.47 1010.64 1010.84 1011.08 1011.40 1011.79 1012.28 1012.99 1013.32 1013.40 1013.43 1013.72 1014.08 1014.35
1000.99 1000.99 1000.43 1000.99 1001.99 1001.84 1002.59 1002.40 1003.47 1003.52 1003.47 1004.20 1003.99 1004.40 1004.59 1004.76 1004.88 1004.88 1005.08 1005.28 1005.43 1005.55 1005.67 1005.79 1005.91 1006.08 1006.20 1006.35 1006.47 1006.55 1006.64 1006.76 1006.91 1007.11 1007.43 1007.67 1007.84 1007.91 1008.08 1008.35 1008.64 1008.96 1009.32 1009.52 1009.67 1009.84 1009.99 1010.11 1010.23 1010.40 1010.59 1010.88 1011.16 1011.55 1012.28 1012.96 1013.43 1013.64 1013.64 1013.67 1013.72 1014.20
1000.43 1000.43 1000.55 1000.99 1001.23 1001.35 1001.91 1002.96 1003.35 1003.32 1003.64 1003.99 1004.20 1004.35 1004.59 1004.79 1004.84 1004.88 1004.96 1005.11 1005.28 1005.40 1005.52 1005.64 1005.76 1005.88 1006.03 1006.20 1006.32 1006.40 1006.52 1006.67 1006.91 1007.11 1007.35 1007.59 1007.79 1007.99 1008.20 1008.32 1008.52 1008.72 1009.03 1009.28 1009.47 1009.59 1009.79 1010.03 1010.08 1010.23 1010.47 1010.76 1011.16 1011.59 1012.16 1012.72 1013.28 1013.55 1013.64 1013.59 1013.72 1013.99
1000.23 1000.59 1000.72 1000.59 1000.88 1001.08 1002.16 1002.91 1002.99 1003.16 1003.40 1003.76 1004.20 1004.40 1004.59 1004.76 1004.76 1004.84 1004.91 1004.99 1005.11 1005.28 1005.43 1005.55 1005.64 1005.76 1005.88 1006.03 1006.16 1006.28 1006.43 1006.55 1006.76 1006.96 1007.23 1007.40 1007.64 1007.88 1008.03 1008.23 1008.47 1008.67 1008.84 1008.99 1009.16 1009.23 1009.55 1009.88 1009.99 1010.11 1010.35 1010.67 1010.99 1011.35 1011.76 1012.20 1012.79 1013.20 1013.43 1013.67 1013.96 1014.20
999.43 999.79 1000.59 1000.79 999.91 1001.35 1002.43 1002.72 1002.76 1002.91 1003.08 1003.59 1003.96 1004.28 1004.35 1004.43 1004.52 1004.67 1004.72 1004.79 1004.99 1005.20 1005.32 1005.43 1005.55 1005.67 1005.76 1005.88 1006.03 1006.20 1006.32 1006.52 1006.72 1006.96 1007.28 1007.40 1007.59 1007.76 1007.91 1008.11 1008.35 1008.59 1008.76 1008.79 1008.88 1009.08 1009.32 1009.64 1009.88 1009.91 1010.11 1010.40 1010.79 1011.23 1011.47 1011.84 1012.35 1012.84 1013.20 1013.59 1013.99 1014.23
1000.11 1000.59 1000.64 999.96 999.64 1001.47 1002.32 1002.47 1002.55 1002.52 1002.79 1003.32 1003.84 1003.96 1003.91 1003.91 1004.03 1004.23 1004.47 1004.64 1004.76 1004.99 1005.20 1005.35 1005.40 1005.43 1005.52 1005.59 1005.76 1005.96 1006.11 1006.35 1006.67 1006.96 1007.16 1007.35 1007.52 1007.67 1007.88 1008.08 1008.20 1008.35 1008.52 1008.67 1008.84 1008.99 1009.11 1009.43 1009.67 1009.72 1009.79 1010.03 1010.32 1010.59 1010.99 1011.55 1011.99 1012.35 1012.79 1013.32 1013.72 1014.16
999.16 998.91 998.67 998.96 1000.43 1001.55 1002.08 1002.23 1002.20 1002.28 1002.67 1003.20 1003.52 1003.35 1003.03 1003.35 1003.84 1004.11 1004.32 1004.52 1004.67 1004.84 1004.99 1005.20 1005.32 1005.32 1005.35 1005.43 1005.55 1005.76 1005.96 1006.20 1006.47 1006.76 1006.99 1007.16 1007.35 1007.55 1007.79 1007.96 1008.08 1008.11 1008.23 1008.43 1008.59 1008.79 1008.96 1009.11 1009.35 1009.52 1009.55 1009.79 1009.99 1010.23 1010.52 1011.03 1011.32 1011.79 1012.43 1012.99 1013.43 1013.72
999.08 999.03 999.67 1000.47 1000.84 1001.40 1001.72 1001.76 1001.67 1001.88 1002.59 1002.99 1002.79 1002.16 1002.67 1003.32 1003.59 1003.91 1004.16 1004.35 1004.52 1004.64 1004.79 1004.96 1005.11 1005.20 1005.23 1005.28 1005.43 1005.67 1005.88 1006.08 1006.28 1006.47 1006.67 1006.96 1007.20 1007.40 1007.64 1007.84 1007.96 1007.96 1007.99 1008.28 1008.43 1008.55 1008.72 1008.91 1009.03 1009.23 1009.35 1009.47 1009.67 1009.88 1010.08 1010.40 1010.72 1011.23 1011.99 1012.76 1013.11 1013.43
998.84 998.64 999.03 1000.35 1000.91 1001.20 1001.40 1001.43 1001.23 1001.84 1002.35 1002.40 1001.59 1002.08 1002.76 1003.08 1003.47 1003.72 1003.96 1004.16 1004.35 1004.43 1004.55 1004.76 1004.91 1005.08 1005.11 1005.16 1005.23 1005.40 1005.64 1005.96 1006.20 1006.40 1006.55 1006.76 1006.99 1007.23 1007.43 1007.64 1007.79 1007.84 1007.84 1008.08 1008.28 1008.35 1008.47 1008.64 1008.79 1008.84 1008.99 1009.16 1009.35 1009.52 1009.64 1009.79 1010.40 1011.03 1011.79 1012.08 1012.52 1012.76
998.32 998.79 999.76 1000.40 1000.79 1001.08 1001.23 1001.16 1001.03 1001.59 1001.96 1001.28 1001.55 1002.28 1002.64 1003.03 1003.32 1003.55 1003.79 1003.96 1004.08 1004.20 1004.32 1004.52 1004.76 1004.91 1004.96 1004.99 1005.08 1005.23 1005.47 1005.79 1005.99 1006.23 1006.43 1006.59 1006.76 1006.99 1007.28 1007.47 1007.59 1007.64 1007.59 1007.76 1008.03 1008.20 1008.28 1008.40 1008.52 1008.59 1008.67 1008.88 1009.03 1009.11 1009.28 1009.55 1010.03 1010.64 1011.35 1011.88 1012.23 1012.67
997.47 998.32 999.11 1000.03 1000.40 1000.91 1001.08 1001.11 1000.84 1001.16 1001.16 1000.88 1001.72 1001.99 1002.47 1002.84 1003.20 1003.40 1003.55 1003.72 1003.88 1003.99 1004.08 1004.28 1004.52 1004.72 1004.84 1004.84 1004.88 1005.08 1005.28 1005.55 1005.79 1005.99 1006.16 1006.40 1006.55 1006.67 1006.91 1007.23 1007.40 1007.35 1007.32 1007.52 1007.67 1007.88 1008.11 1008.23 1008.40 1008.55 1008.67 1008.76 1008.88 1008.96 1009.11 1009.35 1009.67 1010.40 1011.20 1011.88 1012.23 1012.59
998.28 998.28 997.99 999.52 1000.43 1000.76 1000.99 1001.03 1000.88 1000.52 1000.11 1000.84 1001.40 1001.84 1002.28 1002.67 1002.96 1003.20 1003.23 1003.43 1003.64 1003.76 1003.84 1004.08 1004.32 1004.47 1004.64 1004.67 1004.67 1004.67 1004.91 1005.23 1005.59 1005.76 1005.96 1006.11 1006.28 1006.47 1006.59 1006.88 1007.16 1007.11 1007.11 1007.23 1007.40 1007.59 1007.84 1008.08 1008.28 1008.43 1008.67 1008.84 1008.99 1009.16 1009.28 1009.43 1009.55 1010.08 1010.79 1011.47 1011.99 1012.43
997.79 997.79 998.03 998.11 999.91 1000.59 1000.72 1000.79 1000.76 1000.23 1000.28 1000.79 1001.28 1001.72 1002.11 1002.40 1002.59 1002.76 1002.99 1003.16 1003.32 1003.52 1003.64 1003.79 1004.03 1004.23 1004.40 1004.47 1004.52 1004.47 1004.52 1004.84 1005.20 1005.47 1005.64 1005.76 1005.96 1006.20 1006.35 1006.52 1006.84 1006.96 1006.96 1007.03 1007.20 1007.40 1007.64 1007.91 1008.08 1008.16 1008.35 1008.55 1008.79 1008.91 1009.08 1009.40 1009.64 1010.08 1010.72 1011.28 1011.79 1012.28
997.11 997.35 998.08 998.23 999.16 1000.11 1000.28 1000.43 1000.43 1000.35 1000.55 1000.79 1001.16 1001.47 1001.84 1002.03 1002.20 1002.32 1002.52 1002.72 1002.91 1003.16 1003.32 1003.47 1003.64 1003.88 1004.08 1004.20 1004.28 1004.32 1004.35 1004.43 1004.67 1004.96 1005.03 1005.23 1005.47 1005.79 1005.96 1006.11 1006.32 1006.52 1006.59 1006.76 1006.99 1007.20 1007.40 1007.47 1007.64 1007.79 1007.88 1008.08 1008.28 1008.47 1008.64 1008.88 1009.28 1009.76 1010.23 1010.67 1011.32 1011.96
997.55 997.76 998.32 998.16 998.96 999.59 999.91 999.96 999.99 1000.16 1000.43 1000.67 1000.91 1001.20 1001.35 1001.59 1001.84 1001.99 1002.11 1002.40 1002.64 1002.79 1002.96 1003.11 1003.28 1003.52 1003.67 1003.88 1003.99 1003.91 1003.91 1004.08 1004.35 1004.52 1004.67 1004.76 1004.96 1005.20 1005.55 1005.88 1005.99 1006.08 1006.03 1006.08 1006.32 1006.64 1006.91 1007.03 1007.08 1007.16 1007.55 1007.79 1007.96 1008.08 1008.28 1008.59 1008.99 1009.55 1010.16 1010.47 1010.96 1011.84
997.55 997.67 997.91 997.91 998.67 998.91 999.11 999.40 999.64 999.91 1000.16 1000.40 1000.59 1000.79 1000.88 1001.11 1001.52 1001.76 1001.88 1002.08 1002.28 1002.43 1002.67 1002.84 1002.99 1003.16 1003.32 1003.43 1003.59 1003.79 1003.79 1003.72 1003.79 1003.99 1004.28 1004.55 1004.76 1004.91 1005.03 1005.20 1005.47 1005.72 1005.99 1006.08 1005.96 1006.03 1006.20 1006.40 1006.59 1006.99 1007.23 1007.47 1007.76 1007.99 1008.23 1008.59 1008.99 1009.43 1009.91 1010.35 1010.76 1011.32
997.64 997.76 997.72 997.64 998.28 998.35 998.55 998.79 999.23 999.52 999.76 999.91 1000.11 1000.28 1000.35 1000.67 1001.03 1001.32 1001.55 1001.84 1001.91 1001.99 1002.20 1002.43 1002.64 1002.76 1002.91 1003.03 1003.23 1003.40 1003.55 1003.72 1003.76 1003.76 1003.79 1003.99 1004.32 1004.64 1004.84 1004.91 1005.03 1005.28 1005.40 1005.59 1005.84 1005.99 1006.16 1006.40 1006.55 1006.67 1006.91 1007.23 1007.59 1007.96 1008.23 1008.55 1008.96 1009.40 1009.84 1010.32 1010.91 1011.47
997.08 997.28 996.84 997.03 997.76 997.88 998.28 998.47 998.79 998.99 999.23 999.47 999.67 999.91 1000.03 1000.23 1000.43 1000.64 1000.88 1001.20 1001.47 1001.72 1001.88 1001.99 1002.16 1002.35 1002.52 1002.67 1002.84 1002.99 1003.20 1003.40 1003.59 1003.67 1003.72 1003.84 1003.99 1004.20 1004.35 1004.55 1004.76 1004.88 1005.08 1005.28 1005.52 1005.79 1006.11 1006.32 1006.55 1006.79 1007.11 1007.35 1007.55 1007.79 1008.08 1008.40 1008.76 1009.20 1009.59 1009.96 1010.43 1011.08
996.35 996.67 997.03 997.35 997.55 997.67 997.96 998.08 998.20 998.64 998.88 999.11 999.32 999.55 999.72 999.84 999.99 1000.03 1000.28 1000.67 1000.99 1001.32 1001.52 1001.72 1001.79 1001.88 1002.03 1002.28 1002.47 1002.67 1002.79 1002.99 1003.16 1003.35 1003.59 1003.72 1003.84 1003.96 1004.08 1004.20 1004.32 1004.47 1004.67 1004.84 1005.11 1005.35 1005.55 1005.88 1006.23 1006.52 1006.76 1007.03 1007.32 1007.64 1007.91 1008.16 1008.52 1008.96 1009.43 1009.96 1010.20 1010.16
996.52 996.72 996.96 997.08 997.16 997.23 997.55 997.67 997.72 998.11 998.32 998.64 998.91 999.16 999.20 999.35 999.47 999.55 999.76 1000.11 1000.47 1000.91 1001.16 1001.23 1001.35 1001.43 1001.55 1001.67 1001.91 1002.11 1002.32 1002.47 1002.64 1002.91 1003.20 1003.55 1003.79 1003.88 1003.88 1003.88 1003.96 1004.16 1004.43 1004.55 1004.67 1004.91 1005.20 1005.43 1005.72 1005.96 1006.32 1006.67 1007.03 1007.40 1007.72 1007.96 1008.23 1008.59 1008.88 1008.91 1009.03 1009.35
996.40 996.55 996.67 996.64 996.79 997.11 997.32 997.16 997.08 997.64 998.03 998.32 998.55 998.79 998.99 999.11 999.23 999.43 999.52 999.72 1000.08 1000.40 1000.59 1000.84 1000.99 1001.08 1001.16 1001.32 1001.43 1001.64 1001.88 1002.08 1002.32 1002.59 1002.84 1002.99 1003.23 1003.40 1003.47 1003.59 1003.79 1004.03 1004.20 1004.32 1004.43 1004.52 1004.72 1004.96 1005.20 1005.47 1005.72 1006.11 1006.59 1007.08 1007.43 1007.84 1008.16 1008.28 1008.43 1008.59 1008.47 1008.43
996.03 996.08 996.35 996.55 996.59 996.84 997.03 996.76 996.88 997.47 997.67 997.91 998.16 998.40 998.59 998.76 998.96 999.11 999.32 999.47 999.76 1000.03 1000.28 1000.47 1000.64 1000.76 1000.76 1000.79 1000.88 1001.11 1001.43 1001.72 1002.03 1002.23 1002.40 1002.55 1002.72 1002.88 1002.99 1003.16 1003.32 1003.55 1003.84 1004.11 1004.20 1004.20 1004.35 1004.55 1004.84 1005.11 1005.43 1005.76 1006.03 1006.47 1006.99 1007.32 1007.28 1007.40 1007.47 1007.59 1007.79 1007.91
Wind_Speed
8 8 8 8 7 6 6 6 4 5 6 7 9 11 12 11 8 7 7 8 8 8 9 10 8 7 6 5 5 4 6 8 8 8 8 7 6 6 6 7 7 8 7 7 8 9 11 11 12 12 13 15 15 15 14 15 17 17 17 15 14 13
9 9 9 9 9 8 8 6 3 6 7 8 8 6 5 5 6 7 7 8 7 7 6 6 7 8 7 6 6 7 8 8 8 9 9 10 8 9 9 8 8 9 10 9 10 10 11 12 12 12 12 12 13 13 12 12 15 15 16 14 12 11
8 9 8 8 6 4 4 4 6 7 4 6 7 9 9 8 9 7 8 6 7 7 8 9 8 9 9 8 7 7 8 8 8 8 8 6 10 10 10 10 11 10 11 11 10 11 11 12 12 11 12 12 13 12 12 12 14 15 12 12 12 11
8 7 6 5 5 6 6 8 5 5 6 7 7 7 8 9 8 9 9 8 8 9 9 10 8 9 8 10 10 9 8 8 8 8 6 8 8 7 10 11 11 11 11 12 12 11 11 11 12 13 13 14 14 13 11 12 14 13 13 13 13 13
8 6 6 6 6 7 6 5 5 7 7 6 5 7 8 9 10 9 9 9 9 10 9 8 8 9 10 11 10 10 10 9 7 7 9 9 8 8 9 9 10 11 12 12 12 11 10 11 12 12 13 14 15 15 14 14 15 15 14 14 14 13
4 4 5 6 6 6 7 7 6 5 5 6 5 7 8 7 8 9 9 9 10 10 9 9 9 9 10 10 10 11 11 10 9 8 9 9 8 9 9 9 10 10 12 13 13 13 12 11 10 11 12 14 13 13 14 14 15 15 15 15 14 14
5 7 7 6 6 5 5 6 6 6 7 5 6 7 6 5 5 7 8 9 10 10 10 10 10 11 11 11 10 11 10 9 9 8 10 9 9 9 8 9 9 10 11 12 14 14 13 13 11 10 11 12 12 14 14 14 14 14 15 15 15 16
6 5 6 6 7 7 6 6 6 6 6 7 5 5 5 5 4 6 7 8 9 9 10 10 10 12 13 13 11 11 10 9 9 9 8 9 9 8 8 9 8 9 11 11 12 13 15 15 14 12 11 11 11 11 12 13 13 14 14 14 14 15
6 8 7 7 6 6 6 6 6 6 5 6 5 5 5 4 4 4 5 6 6 7 8 9 10 10 10 11 11 10 9 9 10 10 10 9 9 8 8 7 8 8 9 10 9 10 11 12 13 14 13 11 10 10 11 11 11 11 11 12 14 14
7 7 9 7 8 7 5 5 6 6 6 7 5 4 4 3 3 4 4 4 5 5 7 7 7 8 9 9 8 9 9 9 9 10 9 8 9 9 9 9 9 8 6 7 6 6 6 7 9 11 11 11 11 10 12 12 13 12 11 11 11 12
8 8 8 8 6 6 7 6 6 5 5 5 4 4 5 4 3 3 3 3 4 5 5 4 5 5 6 7 7 8 8 8 8 8 8 9 9 8 9 9 9 8 8 7 7 7 6 7 8 8 11 13 14 12 11 11 12 13 12 12 11 11
7 8 7 7 7 7 6 6 6 6 6 6 5 4 4 3 4 3 3 4 4 4 4 4 4 5 5 6 7 7 7 7 8 8 8 9 9 8 8 8 8 9 9 9 8 8 7 9 9 12 15 13 11 10 11 11 11 13 14 13 13 12
7 7 7 9 8 8 8 7 7 5 5 5 4 5 4 3 4 3 3 4 3 3 3 4 5 4 6 7 6 6 7 7 7 7 8 8 8 8 8 8 9 9 9 9 9 10 9 10 10 16 17 18 17 12 9 9 10 10 12 13 14 15
9 9 10 10 9 8 7 7 6 5 7 6 6 6 4 4 4 4 4 4 3 3 4 4 4 5 6 5 7 7 7 7 7 8 8 8 8 8 7 8 10 10 9 8 9 10 11 11 13 16 17 18 17 14 10 9 8 8 10 12 13 12
11 11 11 9 8 8 9 8 6 8 7 6 7 4 4 5 4 4 3 3 3 3 4 4 4 5 5 6 6 6 7 7 8 8 8 9 8 8 9 10 9 9 9 9 10 10 11 10 13 15 17 18 19 18 13 8 10 10 9 10 12 12
9 9 11 11 10 9 7 7 9 8 6 6 4 6 5 5 4 4 4 3 3 3 3 4 5 5 6 5 5 5 6 8 9 8 8 7 7 9 9 9 10 9 10 10 10 10 9 10 12 18 19 18 18 17 14 7 10 10 10 9 9 11
11 10 8 8 9 6 4 5 5 4 4 5 5 5 5 4 5 4 4 4 4 3 3 4 4 5 5 5 5 6 7 7 7 8 7 7 9 9 9 9 9 9 9 10 10 9 9 10 14 18 19 19 19 18 14 6 6 7 9 9 8 8
13 13 13 9 6 6 6 7 6 6 6 5 6 5 5 5 5 5 4 4 4 4 4 4 4 4 4 4 5 6 7 6 7 8 6 6 5 5 6 7 8 9 10 9 9 9 9 8 15 17 18 19 19 20 11 8 8 8 8 9 10 10
12 13 8 6 8 7 8 6 7 6 5 5 5 5 5 5 5 5 5 5 4 4 4 5 5 5 5 5 6 7 7 6 6 5 5 6 6 6 6 7 8 8 9 10 10 10 9 8 14 18 19 19 19 17 9 9 8 8 9 9 9 10
8 6 7 8 8 9 6 7 7 7 6 6 5 5 5 5 7 5 5 5 5 4 4 5 5 5 5 5 6 6 6 6 5 6 6 7 7 8 7 6 5 6 8 10 10 10 10 8 13 19 19 20 21 17 12 10 9 9 8 7 7 7
10 9 7 7 9 8 6 7 8 7 7 6 6 6 7 8 7 7 7 6 5 4 4 5 5 6 6 6 6 6 7 7 7 4 5 5 5 6 5 6 6 7 7 8 9 11 11 9 12 20 20 22 22 17 10 10 9 10 9 9 9 7
5 5 8 9 11 8 9 8 8 8 7 7 6 7 9 10 9 7 6 5 5 5 5 5 6 6 7 7 7 6 7 6 5 6 6 5 5 5 5 6 8 9 8 7 7 8 10 9 10 15 22 22 24 21 12 9 10 11 11 9 9 9
11 13 14 12 8 9 9 8 8 8 7 6 7 10 12 8 6 6 6 6 6 6 6 5 5 7 6 6 6 6 6 6 6 6 6 6 5 5 5 7 7 8 7 7 8 8 9 10 11 14 22 23 24 24 19 11 12 10 10 10 10 9
8 6 4 3 8 9 9 9 10 9 7 7 10 14 7 5 7 7 6 7 7 7 7 6 6 6 6 6 6 6 6 5 6 7 7 6 6 7 7 7 7 7 7 6 7 8 9 9 14 12 20 23 25 24 25 13 12 12 11 10 10 9
7 9 10 7 7 8 8 9 10 7 7 10 15 7 5 7 7 7 7 7 7 7 7 7 7 7 5 6 6 7 7 6 6 6 7 7 7 7 8 8 7 7 7 5 6 7 8 8 10 16 16 21 24 26 25 22 13 19 11 12 12 13
8 9 6 6 6 7 8 10 9 8 9 15 8 4 5 6 7 7 8 8 8 7 7 7 7 7 6 7 6 7 7 7 7 7 7 7 7 7 7 6 6 8 8 7 6 6 7 7 8 12 17 17 23 25 26 23 19 21 12 10 9 9
10 8 5 5 6 6 8 8 10 9 13 11 5 7 7 7 7 8 8 8 7 7 6 6 7 7 7 7 8 7 7 7 7 8 7 7 7 8 8 7 7 8 8 7 7 7 7 7 7 7 12 18 19 23 26 27 22 19 20 12 8 9
4 4 6 5 6 7 7 8 9 12 15 6 7 6 7 7 8 8 9 8 7 7 7 7 7 8 8 8 7 8 7 7 7 7 7 7 7 7 8 8 8 8 8 7 7 7 7 7 7 7 8 11 16 17 22 23 23 21 20 13 9 12
4 6 6 7 6 8 8 9 10 12 6 6 6 7 7 8 9 9 8 8 7 7 7 8 7 7 7 8 7 7 7 7 7 8 8 8 8 8 8 8 8 8 8 8 7 6 6 7 7 7 8 9 11 12 14 15 15 19 18 12 9 12
7 8 8 9 7 8 9 9 10 11 7 5 7 8 8 9 9 9 9 9 8 7 8 8 9 9 7 7 8 8 8 8 8 9 9 9 9 9 9 9 9 10 9 8 7 6 6 7 7 8 9 9 10 10 10 11 11 12 11 11 10 9
8 9 8 10 6 8 8 9 10 8 8 7 7 8 9 9 9 9 8 8 8 8 7 8 7 8 8 7 8 8 8 9 8 9 8 8 8 9 9 8 8 9 9 9 9 9 8 7 9 8 5 6 8 9 9 10 10 9 9 10 14 11
7 7 9 9 5 7 8 9 8 6 7 8 8 9 10 9 8 8 9 8 8 8 8 7 7 7 8 8 8 8 7 9 12 11 9 8 9 12 13 12 10 9 8 8 8 8 9 9 7 8 12 13 13 14 14 11 12 13 10 14 20 13
7 6 6 7 4 6 7 7 6 6 7 9 9 10 10 9 9 8 8 8 9 9 9 8 8 8 8 8 8 7 8 7 8 13 16 14 11 12 14 15 15 16 17 12 9 9 13 11 11 15 16 17 17 16 16 16 16 16 18 20 15 11
6 7 9 8 6 6 6 6 6 8 8 9 9 10 10 10 10 10 9 9 8 9 9 8 8 8 8 8 8 8 7 8 7 7 11 14 14 14 17 18 18 17 16 17 14 9 8 12 13 15 17 18 18 18 19 18 20 19 21 23 18 11
8 7 7 5 5 5 5 6 7 7 7 9 9 10 10 11 11 10 8 8 8 9 9 9 9 9 9 9 9 8 8 8 8 8 7 8 12 14 15 17 19 19 17 16 16 16 12 11 13 17 18 19 19 19 18 19 22 21 23 24 16 13
5 5 5 6 6 7 5 6 7 7 9 8 9 10 11 11 11 11 9 8 9 9 9 10 9 9 9 9 9 9 9 9 9 8 7 6 6 8 11 15 18 18 17 17 17 17 16 14 16 17 18 19 19 20 19 19 16 21 27 24 16 14
6 5 6 7 6 6 6 8 8 7 7 7 9 9 9 9 9 9 9 11 9 8 9 9 9 9 9 9 9 9 9 9 8 7 8 8 9 9 10 9 9 12 17 14 14 16 17 16 16 17 18 20 20 20 20 21 13 16 17 17 15 14
6 6 5 5 6 5 5 8 7 5 6 8 9 9 10 10 9 9 8 7 10 9 8 8 9 9 9 10 10 9 8 8 8 9 8 8 8 9 9 8 8 8 10 18 16 16 17 18 17 15 17 18 20 21 21 15 14 13 15 15 14 13
Wind_Direction
245 246 246 246 242 241 239 243 196 187 189 194 188 196 202 211 203 191 190 190 194 199 199 201 210 216 216 214 204 195 197 196 194 193 197 184 180 176 176 188 185 185 196 200 202 198 200 202 204 200 195 193 192 192 193 188 181 182 185 187 185 187
237 235 235 242 239 233 233 235 208 198 200 185 200 204 201 198 209 211 203 199 193 197 199 206 205 210 220 216 205 202 205 208 203 199 193 196 183 188 187 191 194 192 194 197 204 200 200 203 204 200 200 199 202 194 191 189 185 186 183 177 178 169
240 240 238 243 256 266 266 244 226 226 191 197 192 190 192 195 204 200 215 203 203 189 193 198 197 205 210 217 216 213 212 212 212 212 209 192 199 193 189 191 194 194 198 199 202 208 203 200 202 201 197 197 201 200 194 183 185 184 179 169 169 166
247 254 261 260 259 261 252 244 232 241 225 211 196 195 193 191 193 198 204 206 208 201 199 197 197 198 199 206 213 217 215 213 212 212 208 212 213 198 204 200 193 193 195 198 206 208 208 207 202 199 196 196 198 198 191 184 184 184 177 173 173 169
233 242 251 248 241 247 254 261 239 233 233 223 211 198 206 191 194 191 193 196 200 207 209 200 194 191 197 199 204 210 214 216 210 201 205 210 209 205 212 208 201 195 193 198 204 205 209 210 205 197 200 201 197 196 195 185 183 183 178 180 177 172
271 285 261 251 246 242 240 241 243 246 244 233 215 212 222 201 190 183 182 190 196 199 197 200 202 197 199 202 204 205 206 205 207 198 206 209 206 203 208 209 207 204 199 197 198 200 201 210 211 202 203 202 199 198 197 189 185 184 182 181 176 173
258 243 241 243 246 245 245 242 242 240 242 235 225 229 225 216 190 179 184 184 190 189 190 194 192 198 202 207 209 211 208 204 203 196 201 203 207 208 205 209 207 206 207 206 202 196 195 200 203 212 210 206 203 201 198 194 188 186 185 183 179 177
241 258 255 248 245 244 250 251 246 241 243 241 230 234 234 223 191 190 183 185 186 189 191 192 190 196 199 201 205 208 207 205 205 203 204 200 207 206 206 207 209 209 211 214 211 204 202 197 192 198 209 209 206 205 200 195 189 188 186 186 182 180
252 242 245 239 243 240 240 247 254 252 246 250 239 225 214 206 179 184 185 190 193 192 196 194 196 196 199 198 199 198 197 198 199 196 201 199 200 198 202 206 211 215 214 219 217 216 211 200 193 196 196 199 206 205 206 197 190 189 189 189 185 182
256 253 246 244 244 243 248 247 246 246 243 248 241 215 202 192 172 184 193 196 207 209 211 204 198 199 200 198 197 196 196 194 192 194 192 187 195 195 198 203 210 215 214 221 217 216 216 216 210 200 196 193 201 204 202 197 190 184 186 188 188 186
247 247 243 241 245 250 250 252 253 249 254 250 240 201 208 190 169 191 204 217 230 233 228 223 212 202 199 196 195 197 197 194 192 186 180 183 194 197 196 196 200 203 209 213 206 201 189 200 209 212 203 196 193 193 203 205 191 182 181 183 184 185
244 245 244 247 238 242 247 246 241 232 228 233 227 217 220 157 182 184 202 216 230 237 236 232 224 211 205 198 199 201 194 191 187 181 181 185 190 192 190 192 197 201 204 205 207 204 195 199 202 206 211 204 202 198 197 194 198 187 180 180 182 184
247 246 248 246 240 233 233 231 228 222 225 225 214 217 214 174 193 201 215 239 236 236 236 233 229 212 211 207 203 198 191 190 181 181 182 183 183 187 190 190 195 201 203 205 204 205 205 207 209 204 204 206 202 192 188 188 195 201 187 183 183 182
247 237 235 237 235 231 228 227 220 204 219 209 208 212 191 181 194 213 227 233 244 242 235 228 225 217 219 204 206 196 191 182 183 185 183 179 182 185 179 193 200 199 200 204 205 207 209 213 206 202 203 201 198 195 193 185 186 196 202 190 188 185
237 229 230 232 231 225 225 210 195 210 209 197 209 173 177 190 191 203 220 237 232 241 230 223 217 220 217 211 203 194 183 185 186 189 187 190 186 174 183 196 196 202 200 200 204 209 210 215 208 200 203 201 198 197 192 192 184 185 203 200 188 183
237 229 223 220 222 218 216 197 199 208 194 187 168 173 187 183 199 190 214 221 230 231 222 219 213 218 218 208 202 190 190 189 194 193 192 189 181 186 190 191 194 197 198 201 206 209 208 208 200 200 200 197 197 196 191 198 189 185 186 199 194 185
226 227 231 234 226 212 187 213 206 164 157 167 171 185 178 195 194 199 204 213 223 215 213 209 212 217 214 205 196 193 197 197 201 196 193 189 187 188 188 188 194 198 201 205 203 202 204 207 197 197 193 193 192 190 185 182 195 193 186 182 189 195
216 212 217 218 185 184 189 201 180 166 182 171 175 178 187 189 201 213 207 218 212 211 204 197 208 210 205 200 194 199 203 202 202 201 191 191 199 203 191 187 187 192 199 205 201 198 204 203 194 192 191 191 189 181 171 175 189 196 194 188 182 177
208 211 201 179 188 176 199 189 170 167 158 171 183 175 186 190 208 212 211 220 212 206 201 198 202 204 202 197 199 202 203 201 206 205 179 187 187 189 199 194 191 193 198 198 197 196 197 193 192 190 190 190 181 172 172 173 183 193 195 194 186 179
207 203 184 189 188 191 180 172 166 160 167 180 177 179 192 201 215 209 208 214 213 207 200 202 201 207 203 198 204 205 207 204 204 200 181 193 187 194 194 188 190 197 201 197 196 193 188 188 189 188 189 186 182 177 176 173 177 189 190 188 184 180
195 192 180 180 187 196 175 167 159 161 182 182 183 186 199 212 213 205 206 207 201 203 201 200 203 207 205 205 209 205 207 204 199 183 175 190 183 191 182 188 195 200 205 203 195 188 186 182 187 187 185 184 181 176 174 169 173 181 187 181 185 188
132 147 181 183 203 171 170 164 164 179 184 191 177 194 212 215 209 204 200 198 198 200 207 209 210 212 210 211 208 205 206 191 176 175 175 184 180 181 184 197 202 204 204 197 189 190 187 178 183 188 185 181 180 175 167 166 173 186 184 180 180 179
174 180 188 198 175 165 172 162 167 189 193 178 187 215 220 208 191 190 195 194 197 200 207 211 211 212 209 204 205 196 192 183 181 173 181 182 181 176 190 200 208 211 209 193 194 186 188 182 179 189 186 184 183 179 173 175 183 180 174 178 180 185
190 183 192 184 174 173 168 169 180 195 179 185 210 225 205 175 185 185 187 194 198 201 203 211 216 211 209 198 187 189 193 188 176 178 179 178 177 183 192 197 208 215 212 195 194 196 191 185 182 182 191 188 187 185 182 175 182 174 171 176 185 184
180 194 202 188 180 175 174 171 187 189 187 202 224 210 168 183 178 183 188 193 198 199 201 205 212 213 208 199 190 190 193 180 179 182 183 178 179 186 192 197 203 214 219 200 200 201 195 188 188 184 189 191 189 188 187 182 171 182 180 182 186 191
188 205 201 186 181 175 177 177 188 191 196 223 216 156 174 173 184 181 189 195 198 197 198 200 207 212 205 197 188 191 192 188 186 182 186 183 181 182 188 198 200 213 220 209 204 205 200 196 190 192 190 191 190 190 188 182 173 181 182 186 187 178
192 203 202 194 186 185 185 189 186 196 214 226 160 187 173 179 177 187 192 196 197 198 196 195 202 209 209 199 186 192 194 193 189 191 188 185 188 183 186 190 195 212 218 213 211 208 201 195 195 191 197 194 194 192 190 186 175 178 184 187 182 171
192 188 214 209 196 193 193 197 194 202 222 196 177 175 174 171 181 191 198 193 195 197 189 192 202 208 209 205 198 194 192 192 194 198 189 190 191 190 188 184 193 212 216 222 217 213 204 194 195 195 191 193 194 194 191 186 178 173 181 179 167 161
196 223 225 229 204 197 201 204 211 220 212 172 171 167 171 180 186 194 192 195 192 193 190 194 197 205 209 207 207 203 196 193 195 201 200 194 195 196 193 186 186 204 216 218 219 213 204 200 200 198 190 190 191 194 190 184 180 173 171 171 159 156
205 220 220 232 216 198 204 208 214 218 209 174 167 169 173 186 190 193 195 193 190 191 192 196 197 200 207 209 207 205 205 203 200 210 211 204 202 198 199 191 187 194 205 214 210 205 207 210 205 201 198 196 193 192 190 187 179 177 177 172 159 153
211 218 212 230 210 195 203 212 216 212 199 187 174 169 180 193 196 197 197 192 188 196 192 196 193 200 204 208 211 214 206 202 206 210 216 214 204 203 201 195 198 195 204 209 203 198 209 211 214 208 195 205 203 198 189 188 187 174 174 168 149 141
215 212 216 231 197 190 204 213 216 203 193 183 183 179 188 192 191 198 202 193 193 194 191 194 196 197 204 206 209 211 221 217 206 201 209 219 213 216 211 197 199 191 194 212 220 208 208 209 208 182 193 202 203 205 201 194 184 181 166 159 152 148
219 222 229 235 196 204 207 213 204 193 192 189 188 186 194 185 190 200 203 194 203 194 191 192 196 198 200 206 207 207 211 215 225 220 212 209 207 210 220 218 211 199 198 197 207 207 209 210 201 195 196 198 199 201 199 191 185 173 169 157 149 162
224 216 227 230 210 212 208 211 207 197 197 192 191 190 192 192 190 201 203 199 200 192 196 194 195 196 199 205 203 206 206 212 217 222 225 223 218 215 215 220 221 219 212 206 203 196 203 203 196 191 194 197 197 196 194 189 186 175 169 167 159 167
219 219 222 221 214 215 209 209 217 201 197 195 191 189 194 198 200 207 204 197 194 194 196 195 196 199 199 202 202 205 206 208 212 218 218 217 223 224 221 222 223 223 221 214 210 205 199 190 189 190 192 193 195 194 193 189 188 178 175 165 175 190
219 211 210 213 216 216 207 215 223 205 203 193 190 192 200 201 205 208 203 195 192 190 196 200 200 200 202 201 202 204 206 210 210 213 209 209 209 226 234 231 226 223 221 220 215 212 207 198 190 190 188 190 192 193 191 186 188 184 183 183 191 188
206 207 207 208 212 211 209 222 230 212 195 188 189 193 203 206 208 211 214 203 190 195 200 200 202 203 202 200 203 204 205 207 205 204 206 210 213 219 222 225 227 224 219 220 219 218 213 206 199 193 188 184 186 189 190 187 186 188 191 193 201 199
197 206 203 202 210 211 215 236 238 201 190 187 188 193 202 205 205 208 206 204 199 199 201 201 205 205 206 205 206 202 201 199 199 204 209 211 216 222 227 229 219 212 212 215 220 217 215 212 207 199 192 188 185 184 181 190 199 195 197 199 201 204